This is the latest recevied weather packets stored in our database for station/object KD6VPH. If no packets are shown the sender has not sent any weather packets the latest 10 day(s).
| Time | Temp. | Humidity | Pressure | Rain* | Wind** | Luminosity | Snow |
|---|---|---|---|---|---|---|---|
| 1777583725 | 23.33° C | 56% | 1016.5 hPa | 0 mm | - | 1236 W/m² | - |
| 1777583125 | 22.78° C | 56% | 1016.6 hPa | 0 mm | - | 911 W/m² | - |
| 1777582525 | 22.22° C | 56% | 1016.8 hPa | 0 mm | - | 1014 W/m² | - |
| 1777581325 | 22.22° C | 56% | 1016.8 hPa | 0 mm | - | 1028 W/m² | - |
| 1777580725 | 21.67° C | 58% | 1017 hPa | 0 mm | - | 1130 W/m² | - |
| 1777580125 | 21.67° C | 60% | 1016.9 hPa | 0 mm | - | 1190 W/m² | - |
| 1777579525 | 21.11° C | 60% | 1017.3 hPa | 0 mm | - | 1046 W/m² | - |
| 1777578925 | 20.56° C | 61% | 1017.5 hPa | 0 mm | - | 884 W/m² | - |
| 1777578326 | 20° C | 61% | 1017.4 hPa | 0 mm | - | 838 W/m² | - |
| 1777577725 | 19.44° C | 63% | 1017.5 hPa | 0 mm | - | 940 W/m² | - |
| 1777577125 | 18.89° C | 64% | 1017.5 hPa | 0 mm | - | 1007 W/m² | - |
| 1777576526 | 18.33° C | 64% | 1017.5 hPa | 0 mm | - | 833 W/m² | - |
| 1777575326 | 18.89° C | 63% | 1017.9 hPa | 0 mm | - | 466 W/m² | - |
| 1777574725 | 18.89° C | 63% | 1018 hPa | 0 mm | - | 696 W/m² | - |
| 1777574126 | 18.33° C | 64% | 1017.9 hPa | 0 mm | - | 1023 W/m² | - |
| 1777573526 | 17.78° C | 66% | 1018 hPa | 0 mm | - | 1058 W/m² | - |
| 1777572926 | 17.22° C | 67% | 1018.1 hPa | 0 mm | - | 608 W/m² | - |
| 1777572326 | 17.22° C | 67% | 1018.1 hPa | 0 mm | - | 552 W/m² | - |
| 1777571126 | 16.11° C | 68% | 1018.1 hPa | 0 mm | - | 371 W/m² | - |
| 1777570526 | 16.11° C | 68% | 1018.5 hPa | 0 mm | - | 325 W/m² | - |
| 1777569926 | 16.11° C | 68% | 1018.5 hPa | 0 mm | - | 279 W/m² | - |
| 1777569326 | 16.11° C | 68% | 1018.5 hPa | 0 mm | - | 288 W/m² | - |
| 1777568726 | 15.56° C | 70% | 1018.8 hPa | 0 mm | - | 306 W/m² | - |
| 1777568126 | 15° C | 69% | 1018.7 hPa | 0 mm | - | 311 W/m² | - |
| 1777566926 | 13.89° C | 74% | 1018.9 hPa | 0 mm | - | 251 W/m² | - |
* Rain latest hour (hover to see other rain measurements)
** Current wind speed in m/s (hover to see current wind gust speed)